EW8346 Weather Reports


time (UTC)temp
C
wind
direction
speed
KPH
gust
KPH
rain 1hr
cm
rain 24hr
cm
rain mn
cm
humidity
%
barometer
mb
20260507105608 3 192 0.0 0.0 0.00 0.84 0.03 90 1018.4
20260507105109 3 202 0.0 0.0 0.00 0.84 0.03 90 1018.3
20260507104608 3 215 0.0 0.0 0.00 0.84 0.03 89 1018.2
20260507104107 3 243 0.0 0.0 0.00 0.84 0.03 90 1018.3
20260507103607 3 94 0.0 0.0 0.00 0.84 0.03 90 1018.2
20260507103107 3 242 0.0 0.0 0.00 0.84 0.03 90 1018.2
20260507102608 3 212 0.0 0.0 0.00 0.84 0.03 89 1018.2
20260507102107 3 167 0.0 0.0 0.00 0.84 0.03 90 1018.1
20260507101109 3 284 0.0 1.6 0.03 0.84 0.03 89 1018.1
20260507100609 3 265 0.0 4.8 0.03 0.84 0.03 89 1018.1
20260507100108 3 244 0.0 4.8 0.03 0.84 0.03 90 1018.1
20260507095608 3 239 0.0 4.8 0.03 0.84 0.03 90 1018.1
20260507094607 3 150 0.0 0.0 0.03 0.84 0.03 90 1018.1
20260507094107 3 139 0.0 3.2 0.03 0.84 0.03 90 1018.1
20260507092608 3 104 0.0 0.0 0.03 0.84 0.03 91 1018.0
20260507092107 3 273 0.0 0.0 0.03 0.84 0.03 91 1018.0
20260507091608 3 255 0.0 0.0 0.00 0.81 0.00 91 1018.0
20260507091109 3 255 0.0 0.0 0.00 0.81 0.00 91 1018.0
20260507090608 3 93 0.0 1.6 0.00 0.81 0.00 91 1017.9
20260507085608 3 213 0.0 4.8 0.00 0.81 0.00 93 1017.8
20260507085107 3 210 0.0 0.0 0.00 0.81 0.00 93 1017.7
20260507084107 3 228 0.0 1.6 0.03 0.81 0.00 93 1017.7
20260507083610 3 244 1.6 12.9 0.05 0.81 0.00 93 1017.7
20260507083108 3 225 0.0 0.0 0.05 0.81 0.00 93 1017.7
20260507082107 3 192 1.6 4.8 0.05 0.81 0.00 93 1017.7
20260507081607 3 179 0.0 0.0 0.05 0.81 0.00 94 1017.6
20260507081107 3 148 0.0 4.8 0.08 0.81 0.00 94 1017.5
20260507080609 3 196 0.0 1.6 0.08 0.81 0.00 94 1017.5
20260507080108 3 186 0.0 0.0 0.08 0.81 0.00 94 1017.4
20260507075108 3 251 0.0 0.0 0.10 0.81 0.81 94 1017.5
20260507074607 3 251 0.0 0.0 0.08 0.79 0.79 94 1017.5
20260507074107 3 242 0.0 4.8 0.10 0.79 0.79 94 1017.4
20260507073608 3 179 0.0 0.0 0.10 0.76 0.76 94 1017.4
20260507073108 3 156 0.0 0.0 0.10 0.76 0.76 94 1017.4
20260507072607 3 133 0.0 1.6 0.13 0.76 0.76 94 1017.3
20260507072107 3 158 0.0 0.0 0.13 0.76 0.76 94 1017.3
20260507071609 3 156 0.0 0.0 0.15 0.76 0.76 94 1017.3
20260507071108 3 159 0.0 0.0 0.15 0.74 0.74 94 1017.2
20260507070109 3 159 0.0 0.0 0.18 0.74 0.74 94 1017.2
20260507065108 3 159 0.0 0.0 0.18 0.71 0.71 93 1017.0
20260507064607 3 159 0.0 0.0 0.18 0.71 0.71 94 1017.0
20260507064107 3 159 0.0 0.0 0.18 0.69 0.69 93 1016.9
20260507063607 3 159 0.0 0.0 0.15 0.66 0.66 93 1016.9
20260507063108 3 159 0.0 0.0 0.15 0.66 0.66 93 1016.8
20260507062607 3 159 0.0 0.0 0.15 0.64 0.64 93 1016.7
20260507062107 3 180 0.0 0.0 0.15 0.64 0.64 93 1016.6
20260507061607 3 185 0.0 0.0 0.13 0.61 0.61 93 1016.6
20260507061107 3 185 0.0 0.0 0.13 0.58 0.58 93 1016.5
20260507060107 4 185 0.0 0.0 0.10 0.56 0.56 93 1016.5
20260507055608 4 93 0.0 0.0 0.13 0.56 0.56 93 1016.4
20260507055108 4 93 0.0 0.0 0.10 0.53 0.53 93 1016.4
20260507054607 4 93 0.0 0.0 0.13 0.53 0.53 93 1016.3
20260507053607 4 93 0.0 0.0 0.10 0.51 0.51 93 1016.2
20260507052608 4 93 0.0 0.0 0.08 0.48 0.48 93 1016.3
20260507051607 4 93 0.0 0.0 0.10 0.48 0.48 93 1016.2
20260507051107 4 93 0.0 0.0 0.10 0.46 0.46 93 1016.2
20260507050607 3 93 0.0 0.0 0.15 0.46 0.46 92 1016.2
20260507050114 3 93 0.0 0.0 0.20 0.46 0.46 92 1016.2
20260507045608 3 93 0.0 0.0 0.23 0.43 0.43 92 1016.2
20260507045108 3 93 0.0 0.0 0.25 0.43 0.43 92 1016.1
20260507044607 3 93 0.0 0.0 0.25 0.41 0.41 92 1016.2
20260507044107 3 93 0.0 0.0 0.28 0.41 0.41 92 1016.1
20260507043107 4 93 0.0 0.0 0.30 0.41 0.41 91 1016.1
20260507042608 4 93 0.0 0.0 0.30 0.41 0.41 90 1016.1
20260507042107 4 138 0.0 0.0 0.30 0.41 0.41 90 1016.2
20260507041606 4 136 0.0 0.0 0.28 0.38 0.38 89 1016.2
20260507041109 5 150 0.0 0.0 0.25 0.36 0.36 89 1016.3
20260507040607 5 198 0.0 0.0 0.20 0.30 0.30 88 1016.4
20260507040108 5 157 0.0 1.6 0.18 0.25 0.25 88 1016.3
20260507035607 5 240 0.0 1.6 0.13 0.20 0.20 87 1016.2
20260507035107 5 246 0.0 3.2 0.10 0.18 0.18 86 1016.2
20260507034607 6 220 0.0 0.0 0.08 0.15 0.15 85 1016.1
20260507034107 6 200 1.6 14.5 0.05 0.13 0.13 84 1015.8
20260507033608 6 255 1.6 14.5 0.05 0.10 0.10 83 1015.7
20260507033108 6 231 0.0 11.3 0.05 0.10 0.10 83 1015.5
20260507032609 6 256 0.0 9.7 0.05 0.10 0.10 81 1015.5
20260507032107 6 261 0.0 0.0 0.05 0.10 0.10 82 1015.3
20260507031607 6 76 0.0 0.0 0.08 0.10 0.10 85 1015.2
20260507031107 6 76 0.0 0.0 0.08 0.10 0.10 87 1015.1
20260507030108 6 188 0.0 0.0 0.05 0.08 0.08 87 1015.1
20260507025108 6 198 0.0 0.0 0.08 0.08 0.08 86 1015.1
20260507024608 6 198 0.0 0.0 0.08 0.08 0.08 85 1015.2
20260507024108 6 198 0.0 0.0 0.08 0.08 0.08 84 1015.1
20260507023107 7 198 0.0 0.0 0.05 0.05 0.05 82 1015.0
20260507022607 7 193 0.0 0.0 0.05 0.05 0.05 82 1015.1
20260507022107 7 211 0.0 0.0 0.05 0.05 0.05 80 1015.0
20260507021607 7 153 0.0 0.0 0.03 0.03 0.03 80 1014.9
20260507021108 7 192 0.0 0.0 0.03 0.03 0.03 77 1014.8
20260507020608 8 175 0.0 1.6 0.03 0.03 0.03 78 1014.7
20260507020109 8 146 0.0 0.0 0.03 0.03 0.03 78 1014.8
20260507015607 8 168 0.0 0.0 0.00 0.00 0.00 73 1014.9
20260507015109 8 210 0.0 0.0 0.00 0.00 0.00 71 1014.7
20260507014607 7 209 0.0 0.0 0.00 0.00 0.00 73 1014.7
20260507013607 7 261 0.0 0.0 0.00 0.00 0.00 74 1014.6
20260507013107 7 259 0.0 0.0 0.00 0.00 0.00 75 1014.7
20260507012608 7 251 1.6 11.3 0.00 0.00 0.00 75 1014.7
20260507012108 7 285 0.0 1.6 0.00 0.00 0.00 78 1014.8
20260507011107 7 228 0.0 1.6 0.00 0.00 0.00 77 1014.9
20260507010608 7 240 0.0 0.0 0.00 0.00 0.00 77 1014.8
20260507010108 7 249 0.0 11.3 0.00 0.00 0.00 77 1014.8
20260507005108 7 248 0.0 3.2 0.00 0.00 0.00 80 1014.6
20260507004107 7 222 0.0 4.8 0.00 0.00 0.00 78 1014.7
20260507003608 7 269 0.0 1.6 0.00 0.00 0.00 80 1014.8
20260507003107 7 264 0.0 0.0 0.00 0.00 0.00 80 1014.7
20260507002608 7 291 0.0 0.0 0.00 0.00 0.00 81 1014.7
20260507002109 7 320 0.0 0.0 0.00 0.00 0.00 80 1014.6
20260507001608 7 263 0.0 0.0 0.00 0.00 0.00 80 1014.6
20260507001109 7 276 0.0 1.6 0.00 0.00 0.00 80 1014.5
20260507000608 7 212 0.0 0.0 0.00 0.00 0.00 79 1014.5
20260507000108 7 223 0.0 0.0 0.00 0.00 0.00 81 1014.5
20260506235606 7 335 0.0 0.0 0.00 0.00 0.00 82 1014.5
20260506235108 7 318 0.0 0.0 0.00 0.00 0.00 82 1014.4
20260506234608 7 246 0.0 0.0 0.00 0.00 0.00 83 1014.4
20260506234108 6 253 0.0 0.0 0.00 0.00 0.00 83 1014.4
20260506233608 6 306 0.0 4.8 0.00 0.00 0.00 83 1014.3
20260506233107 7 232 0.0 1.6 0.00 0.00 0.00 81 1014.3
20260506232108 6 222 0.0 0.0 0.00 0.00 0.00 82 1014.3
20260506231607 6 230 0.0 0.0 0.00 0.00 0.00 81 1014.2
20260506231107 7 250 0.0 0.0 0.00 0.00 0.00 80 1014.4
20260506230608 7 286 0.0 0.0 0.00 0.00 0.00 79 1014.3
20260506230108 7 302 0.0 0.0 0.00 0.00 0.00 77 1014.3
20260506225608 7 267 0.0 8.0 0.00 0.00 0.00 75 1014.3
20260506225108 7 212 0.0 3.2 0.00 0.00 0.00 73 1014.2
20260506224608 7 264 0.0 4.8 0.00 0.00 0.00 73 1014.2
20260506224108 7 264 0.0 16.1 0.00 0.00 0.00 73 1014.1
20260506223608 8 249 1.6 4.8 0.00 0.00 0.00 73 1014.0
20260506223107 8 263 1.6 12.9 0.00 0.00 0.00 70 1014.0
20260506222607 8 252 0.0 14.5 0.00 0.00 0.00 70 1014.0
20260506222107 8 202 0.0 14.5 0.00 0.00 0.00 68 1013.9
20260506221607 8 183 0.0 1.6 0.00 0.00 0.00 67 1013.8
20260506221109 7 253 0.0 4.8 0.00 0.00 0.00 68 1013.7
20260506220607 7 212 0.0 14.5 0.00 0.00 0.00 69 1013.7
20260506220107 8 233 0.0 14.5 0.00 0.00 0.00 69 1013.7
20260506215109 8 220 0.0 4.8 0.00 0.00 0.00 66 1013.7
20260506214608 8 229 0.0 8.0 0.00 0.00 0.00 64 1013.6
20260506214107 9 239 0.0 19.3 0.00 0.00 0.00 64 1013.6
20260506213608 10 221 0.0 1.6 0.00 0.00 0.00 61 1013.5
20260506213108 10 234 0.0 0.0 0.00 0.00 0.00 60 1013.3
20260506212607 10 246 0.0 0.0 0.00 0.00 0.00 60 1013.3
20260506211608 9 198 0.0 1.6 0.00 0.00 0.00 61 1013.3
20260506211108 9 214 0.0 0.0 0.00 0.00 0.00 61 1013.3
20260506210608 9 220 0.0 0.0 0.00 0.00 0.00 62 1013.1
20260506210110 9 203 0.0 0.0 0.00 0.00 0.00 63 1013.1
20260506205608 9 198 0.0 1.6 0.00 0.00 0.00 63 1013.1
20260506205108 9 238 0.0 0.0 0.00 0.00 0.00 64 1013.1
20260506204607 9 231 0.0 0.0 0.00 0.00 0.00 65 1013.1
20260506204108 8 290 0.0 0.0 0.00 0.00 0.00 65 1013.0
20260506203609 8 289 0.0 0.0 0.00 0.00 0.00 65 1013.0
20260506203108 8 270 0.0 1.6 0.00 0.00 0.00 66 1012.9
20260506202609 9 256 0.0 14.5 0.00 0.00 0.00 67 1013.0
20260506202108 8 262 0.0 0.0 0.00 0.00 0.00 68 1012.8
20260506201607 8 257 0.0 0.0 0.00 0.00 0.00 69 1012.9
20260506201107 8 353 0.0 1.6 0.00 0.00 0.00 70 1012.9
20260506200607 8 221 0.0 1.6 0.00 0.00 0.00 70 1012.8
20260506200108 8 47 0.0 0.0 0.00 0.00 0.00 71 1012.7
20260506194607 7 70 0.0 0.0 0.00 0.00 0.00 75 1012.8
20260506194107 7 270 0.0 0.0 0.00 0.00 0.00 74 1012.8
20260506192112 7 215 0.0 0.0 0.00 0.00 0.00 76 1012.9
20260506191608 7 243 0.0 0.0 0.00 0.00 0.00 76 1012.9
20260506191109 7 272 0.0 0.0 0.00 0.00 0.00 75 1012.9
20260506190609 7 267 0.0 0.0 0.00 0.00 0.00 76 1012.8
20260506190108 7 232 0.0 0.0 0.00 0.00 0.00 75 1012.8
20260506185608 7 258 0.0 8.0 0.00 0.00 0.00 75 1012.7
20260506184607 7 184 0.0 0.0 0.00 0.00 0.00 74 1012.7
20260506184107 7 247 0.0 0.0 0.00 0.00 0.00 75 1012.7
20260506183607 7 305 0.0 3.2 0.00 0.00 0.00 76 1012.7
20260506183107 7 276 0.0 0.0 0.00 0.00 0.00 76 1012.6
20260506182608 6 250 0.0 0.0 0.00 0.00 0.00 76 1012.7
20260506182108 6 253 0.0 0.0 0.00 0.00 0.00 76 1012.6
20260506181608 6 259 0.0 0.0 0.00 0.00 0.00 76 1012.6
20260506181108 6 253 0.0 0.0 0.00 0.00 0.00 77 1012.6
20260506180608 6 256 0.0 0.0 0.00 0.00 0.00 76 1012.5
20260506180109 6 245 0.0 0.0 0.00 0.00 0.00 76 1012.5
20260506175609 6 240 0.0 0.0 0.00 0.00 0.00 76 1012.5
20260506175108 6 277 0.0 0.0 0.00 0.00 0.00 75 1012.5
20260506174608 6 271 0.0 0.0 0.00 0.00 0.00 76 1012.4
20260506174108 6 271 0.0 0.0 0.00 0.00 0.00 77 1012.5
20260506173618 6 271 0.0 0.0 0.00 0.00 0.00 77 1012.5
20260506170601 5 355 0.0 0.0 0.00 0.00 0.00 78 1012.2
20260506170103 5 14 0.0 0.0 0.00 0.00 0.00 78 1012.3
20260506165602 5 14 0.0 0.0 0.00 0.00 0.00 78 1012.3
20260506164602 5 319 0.0 0.0 0.00 0.00 0.00 78 1012.1
20260506164101 5 289 0.0 0.0 0.00 0.00 0.00 79 1012.0
20260506163603 5 288 0.0 0.0 0.00 0.00 0.00 79 1012.1
20260506163102 5 257 0.0 0.0 0.00 0.00 0.00 79 1012.1
20260506162603 5 250 0.0 0.0 0.00 0.00 0.00 80 1012.0
20260506162101 5 250 0.0 0.0 0.00 0.00 0.00 80 1012.0
20260506161602 5 250 0.0 0.0 0.00 0.00 0.00 80 1012.0
20260506160602 4 250 0.0 0.0 0.00 0.00 0.00 80 1011.9
20260506160103 4 250 0.0 0.0 0.00 0.00 0.00 81 1011.9
20260506155602 4 250 0.0 0.0 0.00 0.00 0.00 81 1011.9
20260506155101 4 250 0.0 0.0 0.00 0.00 0.00 81 1011.9
20260506154602 4 249 0.0 0.0 0.00 0.00 0.00 82 1011.8
20260506154102 4 249 0.0 0.0 0.00 0.00 0.00 82 1011.7
20260506153602 4 250 0.0 0.0 0.00 0.00 0.00 82 1011.7
20260506153102 4 249 0.0 0.0 0.00 0.00 0.00 82 1011.7
20260506152602 3 250 0.0 0.0 0.00 0.00 0.00 81 1011.6
20260506152103 3 250 0.0 0.0 0.00 0.00 0.00 81 1011.8
20260506151602 3 249 0.0 0.0 0.00 0.00 0.00 81 1011.7
20260506151102 3 250 0.0 0.0 0.00 0.00 0.00 81 1011.8
20260506150602 3 250 0.0 0.0 0.00 0.00 0.00 81 1011.7
20260506145602 3 250 0.0 0.0 0.00 0.00 0.00 81 1011.6
20260506145101 3 250 0.0 0.0 0.00 0.00 0.00 82 1011.6
20260506144601 3 250 0.0 0.0 0.00 0.00 0.00 82 1011.5
20260506144101 3 181 0.0 0.0 0.00 0.00 0.00 83 1011.5
20260506143103 3 147 0.0 0.0 0.00 0.00 0.00 84 1011.5
20260506142603 3 147 0.0 0.0 0.00 0.00 0.00 84 1011.5
20260506142103 3 147 0.0 0.0 0.00 0.00 0.00 84 1011.5
20260506141601 3 147 0.0 0.0 0.00 0.00 0.00 84 1011.5
20260506141102 3 147 0.0 0.0 0.00 0.00 0.00 84 1011.5
20260506135601 3 147 0.0 0.0 0.00 0.00 0.00 83 1011.4
20260506135103 3 147 0.0 0.0 0.00 0.00 0.00 83 1011.4
20260506134602 3 147 0.0 0.0 0.00 0.00 0.00 83 1011.4
20260506134102 3 147 0.0 0.0 0.00 0.00 0.00 83 1011.3
20260506133102 3 147 0.0 0.0 0.00 0.00 0.00 83 1011.3
20260506132601 4 147 0.0 0.0 0.00 0.00 0.00 83 1011.3
20260506132102 4 147 0.0 0.0 0.00 0.00 0.00 82 1011.2
20260506131102 4 147 0.0 0.0 0.00 0.00 0.00 82 1011.3
20260506130603 4 147 0.0 0.0 0.00 0.00 0.00 82 1011.1
20260506125602 4 187 0.0 0.0 0.00 0.00 0.00 83 1011.1
20260506124102 4 131 0.0 0.0 0.00 0.00 0.00 83 1010.9
20260506123606 3 180 0.0 0.0 0.00 0.00 0.00 84 1011.0
20260506123103 3 140 0.0 0.0 0.00 0.00 0.00 84 1011.0
20260506122602 3 175 0.0 0.0 0.00 0.00 0.00 84 1011.0
20260506122103 3 139 0.0 0.0 0.00 0.00 0.00 84 1010.9
20260506121602 3 136 0.0 0.0 0.00 0.00 0.00 84 1010.9
20260506120605 3 166 0.0 0.0 0.00 0.00 0.00 84 1010.7
20260506120104 3 228 0.0 0.0 0.00 0.00 0.00 84 1010.8
20260506115604 3 165 0.0 0.0 0.00 0.00 0.00 84 1010.8
20260506114603 3 217 0.0 0.0 0.00 0.00 0.00 85 1010.8
20260506114102 3 223 0.0 0.0 0.00 0.00 0.00 85 1010.7
20260506113608 3 207 0.0 0.0 0.00 0.00 0.00 85 1010.7
20260506113104 3 146 0.0 0.0 0.00 0.00 0.00 85 1010.7
20260506112606 3 188 0.0 0.0 0.00 0.00 0.00 85 1010.7
20260506112110 3 191 0.0 3.2 0.00 0.00 0.00 85 1010.7
20260506111603 3 190 0.0 4.8 0.00 0.00 0.00 84 1010.8
20260506111102 3 217 0.0 4.8 0.00 0.00 0.00 84 1010.8
20260506110602 3 208 0.0 0.0 0.00 0.00 0.00 84 1010.8